User: anonymous   Login
Location: Unspecified
(0.0000°N, 0.0000°E)
Time: 04:52:30
(UTC+00:00)
Language:

UNIFORM 1 - Orbit

View from above orbital plane
View from above orbital plane
View from above satellite
View from above satellite

Ground track
Ground track

The orbit data is extracted from the following two-line orbital elements,

1 39767U 14029B   18113.87223281  .00000241  00000-0  35684-4 0  9992
2 39767  97.8583 209.9816 0006628  18.4037 341.7412 14.83566541212026
Epoch (UTC): 23 April 2018 20:56:00
Eccentricity: 0.0006628
inclination: 97.8583°
perigee height: 613 km
apogee height: 623 km
right ascension of ascending node: 209.9816°
argument of perigee: 18.4037°
revolutions per day: 14.83566541
mean anomaly at epoch: 341.7412°
orbit number at epoch: 21202

The dashed part of the orbit path shows where the satellite is in the earth's shadow,  

DLR